Weather in Weiden

Germany     49°40′21″N   12°09′21″E
temp.,
°C
wind,
m/s
gust,
m/s
humid.,
%
clouds,
%
prec.,
mm/h
press.,
hPa
HPBL,
m
19 june, sat
sat1923:00+20ese22720 0.0 101522
02:00+18ese11775 0.0 101511
05:00+18ese117598 0.0 101511
08:00+22ssw11705 0.1 1016147
11:00+27wnw22505 0.1 1015801
14:00+32ese01365 0.1 10132353
17:00+29sse124872 0.0 10121172
20:00+17ne61491100 3.9 1014319
20 june, sun
sun2023:00+15ne1192100 1.0 101416
02:00+15ene218611 1.0 101313
05:00+15ese21925 0.0 101217
08:00+19w1277100 0.0 1012192
11:00+25wsw2358100 0.0 1012748
14:00+28w344165 0.0 10111721
17:00+28nnw234298 0.0 10091543
20:00+23nne247094 0.0 100777
21 june, mon
mon2123:00+19ene31394100 3.3 1006357
02:00+16e2496100 4.5 100593
05:00+15ese219928 0.0 100732
08:00+17sw128934 0.0 1008345
11:00+23w236099 0.0 1008760
14:00+26wnw33463 0.0 10071693
17:00+24wnw3557100 0.1 1008624
20:00+21nnw267573 0.4 1009260
22 june, tue
tue2223:00+18nne248676 0.2 1011136
02:00+15ne019553 1.8 101110
05:00+15nne1195100 1.5 101128
08:00+17n139297 1.9 1012131
11:00+21nnw1272100 0.2 1012643
14:00+22ene238232 2.4 1012714
17:00+22ese237846 5.4 1011562
20:00+20nne228688 10.4 101231
23 june, wed
wed2323:00+16wnw1399100 18.5 1014184
02:00+15nne2398100 23.9 1015143
05:00+15n1398100 0.1 1016176
08:00+16nne2394100 0.1 1017252
11:00+19ne237899 0.0 1017791
14:00+21ne3466100 0.1 10171109
17:00+21ne356911 0.0 1016940
20:00+19ene587746 0.0 1015659